Time+03,TemperatureF,Dew PointF,Humidity,Sea Level PressureIn,VisibilityMPH,Wind Direction,Wind SpeedMPH,Gust SpeedMPH,PrecipitationIn,Events,Conditions,WindDirDegrees,DateUTC
12:55 AM,67.8,64.8,90,29.88,6.2,East,6.9,-,N/A,,Clear,90,2013-01-09 21:55:00
1:55 AM,67.3,64.8,92,29.86,6.2,East,6.9,-,N/A,,Clear,90,2013-01-09 22:55:00
2:55 AM,67.1,65.1,93,29.86,6.2,East,5.8,-,N/A,,Clear,80,2013-01-09 23:55:00
3:55 AM,66.6,64.6,93,29.85,6.2,ENE,4.6,-,N/A,,Clear,70,2013-01-10 00:55:00
4:55 AM,67.5,65.8,95,29.86,6.2,East,3.5,-,N/A,,Clear,80,2013-01-10 01:55:00
5:55 AM,67.1,65.7,95,29.89,6.2,Calm,Calm,-,N/A,,Clear,0,2013-01-10 02:55:00
6:55 AM,64.4,63.5,97,29.91,5.6,SE,4.6,-,N/A,,Clear,130,2013-01-10 03:55:00
7:55 AM,67.6,65.8,94,29.93,6.2,SSE,6.9,-,N/A,,Clear,150,2013-01-10 04:55:00
8:55 AM,73.0,61.0,66,29.94,6.2,South,10.4,-,N/A,,Scattered Clouds,180,2013-01-10 05:55:00
9:55 AM,75.9,60.3,58,29.94,6.2,SW,9.2,-,N/A,,Partly Cloudy,230,2013-01-10 06:55:00
10:55 AM,77.4,58.5,52,29.93,6.2,West,8.1,-,N/A,,Partly Cloudy,260,2013-01-10 07:55:00
11:55 AM,77.0,61.0,58,29.91,6.2,West,8.1,-,N/A,,Partly Cloudy,280,2013-01-10 08:55:00
12:55 PM,79.0,61.3,55,29.89,6.2,NW,9.2,-,N/A,,Scattered Clouds,310,2013-01-10 09:55:00
1:55 PM,80.6,59.0,48,29.89,6.2,NW,12.7,-,N/A,,Clear,320,2013-01-10 10:55:00
2:55 PM,78.3,50.0,37,29.90,6.2,NW,20.7,27.6,N/A,,Clear,310,2013-01-10 11:55:00
3:39 PM,77.0,39.2,26,29.89,3.1,NW,23.0,-,N/A,,Widespread Dust,320,2013-01-10 12:39:00
3:55 PM,76.5,49.1,38,29.89,3.1,NW,25.3,-,N/A,,Widespread Dust,320,2013-01-10 12:55:00
4:00 PM,75.2,50.0,41,29.88,1.5,NNW,26.5,31.1,N/A,,Widespread Dust,330,2013-01-10 13:00:00
4:55 PM,69.8,55.6,61,29.93,1.7,NNW,28.8,-,0.00,,Widespread Dust,330,2013-01-10 13:55:00
5:55 PM,67.5,56.3,67,29.96,-9999.0,NNW,24.2,-,N/A,,Widespread Dust,330,2013-01-10 14:55:00
6:55 PM,65.8,55.0,68,29.99,-9999.0,NNW,23.0,-,N/A,,Widespread Dust,330,2013-01-10 15:55:00
7:09 PM,66.2,55.4,68,29.98,3.7,NNW,25.3,33.4,N/A,,Widespread Dust,330,2013-01-10 16:09:00
7:55 PM,64.8,54.1,68,30.01,3.7,NNW,27.6,33.4,N/A,,Widespread Dust,340,2013-01-10 16:55:00
8:55 PM,63.7,52.7,67,30.04,3.7,NNW,21.9,-,N/A,,Widespread Dust,330,2013-01-10 17:55:00
9:55 PM,63.1,51.8,66,30.06,3.7,NNW,23.0,-,N/A,,Widespread Dust,330,2013-01-10 18:55:00
10:55 PM,62.8,50.5,64,30.09,5.0,NNW,23.0,-,N/A,,Widespread Dust,330,2013-01-10 19:55:00
11:55 PM,62.6,49.1,61,30.09,5.0,NNW,23.0,-,N/A,,Widespread Dust,330,2013-01-10 20:55:00